Regional Weather Roundup
Issued by NWS

Home | Current Version | Previous Version | Graphics & Text | Print | Product List | Glossary On
Versions: 1 2 3 4 5 6 7 8 9 10 11 12 13 14 15 16 17 18 19 20 21 22 23 24 25 26 27 28 29 30 31 32 33 34 35 36 37 38 39 40 41 42 43 44 45 46 47 48 49 50
687
ASUS43 KMKX 300500
RWRWI

WISCONSIN REGIONAL WEATHER ROUNDUP
NATIONAL WEATHER SERVICE MILWAUKEE/SULLIVAN WI
1200 AM CDT SAT APR 30 2016

NOTE: "FAIR" INDICATES FEW OR NO CLOUDS BELOW 12,000 FEET WITH NO
SIGNIFICANT WEATHER AND/OR OBSTRUCTIONS TO VISIBILITY.

WIZ001-002-006>008-014>016-023>028-300600-
NORTHWEST WISCONSIN

CITY           SKY/WX    TMP DP  RH WIND       PRES   REMARKS
SUPERIOR ARPT  CLEAR     36  32  84 E5        30.22F WCI  32
ASHLAND        CLEAR     32  30  92 NE6       30.22F WCI  26
HAYWARD        CLEAR     38  28  67 NE5       30.17F WCI  34
SIREN          CLEAR     44  31  60 NE5       30.18R
CUMBERLAND     CLEAR     41  32  70 NE5       30.15R
RICE LAKE      CLEAR     44  32  63 N7        30.16S
CHETEK         CLEAR     46  32  58 NE3       30.15R
LADYSMITH      CLEAR     43  32  63 NE8       30.16S
EAU CLAIRE     NOT AVBL
MENOMONIE      CLOUDY    48  41  76 N6        30.13R
NEW RICHMOND   MOCLDY    47  32  55 NE9       30.14R
OSCEOLA        CLEAR     48  33  56 NE8       30.16S
$$

WIZ003>005-009-010-017-018-300600-
NORTH CENTRAL WISCONSIN

CITY           SKY/WX    TMP DP  RH WIND       PRES   REMARKS
MANITOWISH WTR CLEAR     38  30  72 NE7       30.16F WCI  33
ARBOR VITAE    CLEAR     43  31  62 NE7       30.15F
WOODRUFF       CLEAR     43  31  62 NE7       30.15F
RHINELANDER    CLEAR     38  31  76 E5        30.15F WCI  34
EAGLE RIVER    CLEAR     39  27  62 NE5       30.15F
LAND O LAKES   CLEAR     40  29  64 N6        30.18F
PHILLIPS       CLEAR     41  30  65 NE7       30.14F
TOMAHAWK       PTCLDY    39  34  82 CALM      30.15F
MEDFORD        CLEAR     39  37  92 CALM      30.13S
MERRILL        CLEAR     38  34  86 CALM      30.14F
$$

WIZ029-030-035-036-043>047-300600-
CENTRAL WISCONSIN

CITY           SKY/WX    TMP DP  RH WIND       PRES   REMARKS
WAUSAU         CLEAR     43  34  70 E5        30.13S
MOSINEE        CLEAR     41  34  75 NE6       30.14F
MARSHFIELD     CLEAR     45  36  70 E3        30.12S
STEVENS POINT  CLEAR     38  33  84 CALM      30.14S
WAUPACA        CLEAR     44  34  68 CALM      30.15S
WAUTOMA        CLOUDY    37  33  85 CALM      30.15S
WISC RAPIDS    CLEAR     43  32  65 E5        30.14S
CAMP DOUGLAS   NOT AVBL
$$

WIZ011>013-019>022-031-037>040-048>050-300600-
NORTHEAST WISCONSIN

CITY           SKY/WX    TMP DP  RH WIND       PRES   REMARKS
ANTIGO         CLEAR     36  32  88 CALM      30.15S
SHAWANO        CLEAR     44  33  64 CALM      30.16S
OCONTO         CLOUDY    37  34  90 CALM      30.15F
STURGEON BAY   CLEAR     43  27  52 NE3       30.18S
GREEN BAY      CLEAR     43  33  68 CALM      30.15F
MANITOWOC      NOT AVBL
APPLETON       CLEAR     39  30  70 S5        30.13F
CLINTONVILLE   CLEAR     41  32  70 SE3       30.15S
OSHKOSH        CLEAR     39  29  67 NE3       30.14S
$$

WIZ032>034-041-042-053>061-300600-
SOUTHWEST WISCONSIN

CITY           SKY/WX    TMP DP  RH WIND       PRES   REMARKS
LA CROSSE      CLOUDY    42  38  85 E3        30.10S
SPARTA         CLOUDY    36  35  98 CALM      30.12R
VIROQUA        CLOUDY    41  37  84 NE3       30.09F
BOSCOBEL       CLOUDY    40  38  93 CALM      30.10S
PRAIRIE DU CHI CLOUDY    42  38  84 CALM      30.09R
PLATTEVILLE    CLOUDY    42  39  91 E7        30.07F
$$

WIZ056-057-062-063-064-067-068-300600-
SOUTH CENTRAL WISCONSIN

CITY           SKY/WX    TMP DP  RH WIND       PRES   REMARKS
REEDSBURG      CLOUDY    42  37  80 NE3       30.11F
BARABOO/DELLS  CLOUDY    42  33  71 E3        30.12S
LONE ROCK      NOT AVBL
MINERAL POINT  CLOUDY    43  39  87 E5        30.07F
MADISON        CLOUDY    40  34  79 E7        30.10F
MIDDLETON      CLOUDY    45  37  73 E7        30.11F
WATERTOWN      PTCLDY    38  36  92 E3        30.13R
MONROE         CLOUDY    41  37  87 NE9       30.08F
JANESVILLE     MOCLDY    41  41 100 E9        30.10F
$$

WIZ051-052-058>065-066-070>072-300600-
SOUTHEAST WISCONSIN

CITY           SKY/WX    TMP DP  RH WIND       PRES   REMARKS
MILWAUKEE      MOCLDY    43  33  68 CALM      30.14S
WAUKESHA       CLOUDY    37  32  81 E5        30.14F WCI  34
MILWAUKEE/TIMM CLOUDY    41  30  65 CALM      30.15S
RACINE         CLOUDY    43  34  70 NE7       30.14F
BURLINGTON     CLOUDY    40  34  77 E3        30.13S
KENOSHA        CLOUDY    43  35  73 NE8       30.12F
FOND DU LAC    CLEAR     40  29  64 SE6       30.15R
SHEBOYGAN      CLEAR     36  29  75 N3        30.15S
WEST BEND      PTCLDY    36  32  87 CALM      30.14S
JUNEAU         CLEAR     39  33  78 E5        30.14S
$$

LSZ147-162-300600-
LAKE SUPERIOR

STATION/POSITION TIME  TEMP    WIND        PRES    WAVE
                       AIR SEA DIR/SP/G            HT/PER
                 (UTC) (F)     (DEG/KT/KT) (MB)    (FT/S)
W MID LAKE BUOY  0350   38 36   20/  6/  6 1024.8R   1
DEVILS ISLAND    0400   39      90/  5/  5 1024.8R
SAXON HARBOR     0400   33     210/  2/  3 1023.0S
$$

LMZ867-665-643>646-300600-
LAKE MICHIGAN

STATION/POSITION TIME  TEMP    WIND        PRES    WAVE
                       AIR SEA DIR/SP/G            HT/PER
                 (UTC) (F)     (DEG/KT/KT) (MB)    (FT/S)
CHAMBERS ISLAND  0400   39      CALM  /  2 1021.3F
N MID LAKE BUOY  0350   42 38   10/  8/  8 1021.6F   0
NORTHPORT PIER   0400   42     290/  2/  8 1021.3F
ALGOMA LAKESHORE 0400             CALM       N/A
KEWAUNEE LAKESHO 0400   42     280/  3/  3 1020.3
SHEBOYGAN LAKESH 0400   43      20/  1/  2 1021.9S
PORT WASHINGTON  0400   42     340/  2/  2 1021.7S
S MID LAKE BUOY  0350   41 40   70/  8/ 10 1020.9R   1/ 3
KENOSHA   LAKESH 0400   42      40/  8/  8 1020.3F
$$

TC  - TEMPERATURE IN CELSIUS
VSB - VISIBILITY IN STATUTE MILES
WCI - WIND CHILL INDEX
HX  - HEAT INDEX





USA.gov is the U.S. government's official web portal to all federal, state and local government web resources and services.